GSAT-12                 
1 37746U 11034A   19262.07678795 -.00000169  00000-0  00000+0 0  9991
2 37746   0.0099 164.1119 0005388 284.9332  19.3661  1.00272528 30258
PSLV R/B                
1 37747U 11034B   19260.26119685  .00000425  00000-0  10988-3 0  9993
2 37747  17.9162 192.0518 5953635 265.0657  28.8219  4.08681582119428